Omaha, IA

6:15 AM CDT on June 24, 2017 (GMT -0500)
Eppley Airfield

Weather History for KOMA - October, 2011

Change the Weather History Date:

Sunday, October 30, 2011

  Actual Average Record
Temperature  
Mean Temperature 49 °F 48 °F  
Max Temperature 61 °F 58 °F 83 °F (1950)
Min Temperature 37 °F 37 °F 11 °F (1925)
Degree Days  
Heating Degree Days 16 18  
Month to date heating degree days 263 364  
Since 1 July heating degree days 379 467  
Cooling Degree Days 0 0  
Month to date cooling degree days 45 12  
Year to date cooling degree days 1378 1109  
Growing Degree Days 2 (Base 50)    
Moisture  
Dew Point 29 °F    
Average Humidity 44    
Maximum Humidity 65    
Minimum Humidity 23    
Precipitation  
Precipitation 0.00 in 0.06 in 2.57 in (1979)
Month to date precipitation 0.39 2.09  
Year to date precipitation 25.68 27.88  
Snow  
Snow 0.00 in 0.00 in - ()
Month to date snowfall 0.0 0.3  
Since 1 July snowfall 0.0 0.3  
Snow Depth 0.00 in    
Sea Level Pressure  
Sea Level Pressure 29.99 in    
Wind  
Wind Speed 13 mph (NW)    
Max Wind Speed 29 mph    
Max Gust Speed 36 mph    
Visibility 10 miles    
Events      
T = Trace of Precipitation, MM = Missing Value Source: NWS Daily Summary

Daily Weather History Graph

Daily Weather History Graph

Search for Another Location

Airport or City:

Trip Planner

Search our weather history database for the weather conditions in past years. The results will help you decide how hot, cold, wet, or windy it might be!

Date:

Astronomy

Oct. 30, 2011 Rise Set
Actual Time 7:52 AM CDT 6:21 PM CDT
Civil Twilight 7:23 AM CDT 6:50 PM CDT
Nautical Twilight 6:51 AM CDT 7:22 PM CDT
Astronomical Twilight 6:19 AM CDT 7:54 PM CDT
Moon 12:14 PM CDT (10/30) 9:49 PM CDT (10/30)
Length of Visible Light 11h 26m
Length of Day
10h 29m
Waxing Crescent, 20% of the Moon is Illuminated
Oct 30
Waxing Crescent
Nov 2
First Quarter
Nov 10
Full
Nov 18
Last Quarter
Nov 25
New

Hourly Weather History & Observations

Time (CDT) Temp. Windchill Dew Point Humidity Pressure Visibility Wind Dir Wind Speed Gust Speed Precip Events Conditions
12:52 AM 57.0 °F - 30.0 °F 36% 29.82 in 10.0 mi South 9.2 mph - N/A   Overcast
1:52 AM 55.9 °F - 30.9 °F 39% 29.83 in 10.0 mi South 4.6 mph - N/A   Overcast
2:52 AM 55.4 °F - 30.2 °F 38% 29.87 in 10.0 mi NW 12.7 mph 18.4 mph N/A   Overcast
3:52 AM 54.0 °F - 33.1 °F 45% 29.87 in 10.0 mi NNW 11.5 mph 21.9 mph N/A   Overcast
4:52 AM 52.0 °F - 34.0 °F 50% 29.91 in 10.0 mi NW 15.0 mph - N/A   Scattered Clouds
5:52 AM 51.1 °F - 36.0 °F 56% 29.95 in 10.0 mi NW 17.3 mph 24.2 mph N/A   Overcast
6:52 AM 46.4 °F 39.8 °F 35.6 °F 66% 29.96 in 10.0 mi NW 16.1 mph 23.0 mph N/A   Scattered Clouds
7:52 AM 46.0 °F 38.5 °F 34.0 °F 63% 29.99 in 10.0 mi NW 19.6 mph 28.8 mph N/A   Scattered Clouds
8:52 AM 46.4 °F 40.7 °F 33.8 °F 62% 30.01 in 10.0 mi NW 12.7 mph - N/A   Partly Cloudy
9:52 AM 48.9 °F - 34.0 °F 56% 30.03 in 10.0 mi NW 13.8 mph - N/A   Clear
10:52 AM 51.1 °F - 33.1 °F 50% 30.04 in 10.0 mi WNW 16.1 mph 21.9 mph N/A   Clear
11:52 AM 54.0 °F - 30.9 °F 41% 30.04 in 10.0 mi WNW 17.3 mph 24.2 mph N/A   Clear
12:52 PM 57.0 °F - 28.9 °F 34% 30.02 in 10.0 mi WNW 15.0 mph 24.2 mph N/A   Partly Cloudy
1:52 PM 57.9 °F - 25.0 °F 28% 30.01 in 10.0 mi NW 23.0 mph 31.1 mph N/A   Scattered Clouds
2:52 PM 59.0 °F - 25.0 °F 27% 30.00 in 10.0 mi WNW 21.9 mph 32.2 mph N/A   Scattered Clouds
3:52 PM 60.1 °F - 24.1 °F 25% 29.98 in 10.0 mi NW 15.0 mph - N/A   Scattered Clouds
4:52 PM 60.1 °F - 23.0 °F 24% 29.98 in 10.0 mi WNW 16.1 mph 27.6 mph N/A   Scattered Clouds
5:52 PM 57.0 °F - 24.1 °F 28% 29.99 in 10.0 mi NW 17.3 mph 26.5 mph N/A   Partly Cloudy
6:52 PM 54.0 °F - 23.0 °F 30% 30.02 in 10.0 mi NNW 12.7 mph - N/A   Partly Cloudy
7:52 PM 50.0 °F - 21.9 °F 33% 30.04 in 10.0 mi NW 11.5 mph - N/A   Clear
8:52 PM 48.9 °F - 23.0 °F 36% 30.06 in 10.0 mi WNW 6.9 mph - N/A   Clear
9:52 PM 46.9 °F - 23.0 °F 39% 30.06 in 10.0 mi WNW 6.9 mph - N/A   Clear
10:52 PM 43.0 °F 38.8 °F 25.0 °F 49% 30.08 in 10.0 mi North 6.9 mph - N/A   Clear
11:52 PM 39.0 °F 35.7 °F 24.1 °F 55% 30.09 in 10.0 mi North 4.6 mph - N/A   Clear